| time (UTC) | temp F | wind direction | speed MPH | gust MPH | rain 1hr in | rain 24hr in | rain mn in | humidity % | barometer mb |
| 20260509200502 | 70 | 0 | 0.0 | 3.0 | 0.00 | 0.00 | 0.00 | 49 | 1008.5 |
| 20260509200003 | 70 | 0 | 2.0 | 3.0 | 0.00 | 0.00 | 0.00 | 49 | 1008.5 |
| 20260509195502 | 70 | 209 | 1.0 | 5.0 | 0.00 | 0.00 | 0.00 | 46 | 1008.6 |
| 20260509194451 | 70 | 0 | 1.0 | 5.0 | 0.00 | 0.00 | 0.00 | 47 | 1008.7 |
| 20260509193944 | 70 | 0 | 1.0 | 4.0 | 0.00 | 0.00 | 0.00 | 46 | 1008.8 |
| 20260509193444 | 72 | 47 | 2.0 | 4.0 | 0.00 | 0.00 | 0.00 | 45 | 1008.9 |
| 20260509192945 | 69 | 0 | 1.0 | 5.0 | 0.00 | 0.00 | 0.00 | 47 | 1008.9 |
| 20260509192444 | 70 | 0 | 1.0 | 5.0 | 0.00 | 0.00 | 0.00 | 46 | 1009.0 |
| 20260509191943 | 71 | 54 | 2.0 | 9.0 | 0.00 | 0.00 | 0.00 | 50 | 1009.1 |
| 20260509191444 | 71 | 189 | 5.0 | 9.0 | 0.00 | 0.00 | 0.00 | 48 | 1009.1 |
| 20260509185943 | 71 | 0 | 2.0 | 5.0 | 0.00 | 0.00 | 0.00 | 48 | 1009.0 |
| 20260509185443 | 71 | 82 | 2.0 | 10.0 | 0.00 | 0.00 | 0.00 | 48 | 1009.2 |
| 20260509184945 | 71 | 0 | 4.0 | 10.0 | 0.00 | 0.00 | 0.00 | 46 | 1009.2 |
| 20260509184443 | 70 | 0 | 3.0 | 9.0 | 0.00 | 0.00 | 0.00 | 49 | 1009.1 |
| 20260509183944 | 71 | 94 | 4.0 | 10.0 | 0.00 | 0.00 | 0.00 | 49 | 1009.2 |
| 20260509183443 | 71 | 196 | 4.0 | 10.0 | 0.00 | 0.00 | 0.00 | 50 | 1009.2 |
| 20260509182944 | 70 | 145 | 4.0 | 7.0 | 0.00 | 0.00 | 0.00 | 46 | 1009.5 |
| 20260509181944 | 69 | 164 | 4.0 | 9.0 | 0.00 | 0.00 | 0.00 | 49 | 1009.8 |
| 20260509181443 | 69 | 138 | 4.0 | 9.0 | 0.00 | 0.00 | 0.00 | 48 | 1009.9 |
| 20260509175942 | 68 | 97 | 1.0 | 10.0 | 0.00 | 0.00 | 0.00 | 49 | 1010.1 |
| 20260509175443 | 70 | 142 | 5.0 | 10.0 | 0.00 | 0.00 | 0.00 | 49 | 1010.0 |
| 20260509174945 | 69 | 158 | 3.0 | 7.0 | 0.00 | 0.00 | 0.00 | 50 | 1009.8 |
| 20260509174443 | 68 | 178 | 3.0 | 7.0 | 0.00 | 0.00 | 0.00 | 52 | 1010.1 |
| 20260509173943 | 67 | 0 | 3.0 | 11.0 | 0.00 | 0.00 | 0.00 | 51 | 1010.2 |
| 20260509173444 | 67 | 34 | 7.0 | 11.0 | 0.00 | 0.00 | 0.00 | 52 | 1010.2 |
| 20260509172942 | 67 | 0 | 6.0 | 12.0 | 0.00 | 0.00 | 0.00 | 51 | 1010.2 |
| 20260509172443 | 68 | 0 | 8.0 | 12.0 | 0.00 | 0.00 | 0.00 | 50 | 1010.3 |
| 20260509171954 | 68 | 0 | 6.0 | 12.0 | 0.00 | 0.00 | 0.00 | 50 | 1010.4 |
| 20260509170944 | 66 | 0 | 4.0 | 7.0 | 0.00 | 0.00 | 0.00 | 52 | 1010.7 |
| 20260509170444 | 65 | 0 | 5.0 | 11.0 | 0.00 | 0.00 | 0.00 | 52 | 1010.7 |
| 20260509165943 | 65 | 32 | 5.0 | 11.0 | 0.00 | 0.00 | 0.00 | 53 | 1010.8 |
| 20260509164942 | 65 | 44 | 6.0 | 10.0 | 0.00 | 0.00 | 0.00 | 50 | 1011.0 |
| 20260509164442 | 66 | 11 | 6.0 | 10.0 | 0.00 | 0.00 | 0.00 | 50 | 1011.0 |
| 20260509163942 | 66 | 0 | 5.0 | 9.0 | 0.00 | 0.00 | 0.00 | 50 | 1011.0 |
| 20260509163444 | 67 | 0 | 4.0 | 10.0 | 0.00 | 0.00 | 0.00 | 50 | 1011.0 |
| 20260509162943 | 66 | 0 | 4.0 | 10.0 | 0.00 | 0.00 | 0.00 | 50 | 1010.9 |
| 20260509162443 | 68 | 0 | 6.0 | 9.0 | 0.00 | 0.00 | 0.00 | 48 | 1010.9 |
| 20260509161944 | 67 | 0 | 3.0 | 10.0 | 0.00 | 0.00 | 0.00 | 49 | 1011.0 |
| 20260509161444 | 67 | 0 | 6.0 | 10.0 | 0.00 | 0.00 | 0.00 | 48 | 1010.8 |
| 20260509160942 | 67 | 44 | 4.0 | 11.0 | 0.00 | 0.00 | 0.00 | 47 | 1010.7 |
| 20260509160444 | 67 | 0 | 6.0 | 11.0 | 0.00 | 0.00 | 0.00 | 47 | 1010.5 |
| 20260509155944 | 68 | 0 | 5.0 | 10.0 | 0.00 | 0.00 | 0.00 | 47 | 1010.5 |
| 20260509155444 | 67 | 133 | 4.0 | 9.0 | 0.00 | 0.00 | 0.00 | 48 | 1010.4 |
| 20260509154943 | 67 | 0 | 6.0 | 10.0 | 0.00 | 0.00 | 0.00 | 48 | 1010.3 |
| 20260509153945 | 68 | 0 | 4.0 | 13.0 | 0.00 | 0.00 | 0.00 | 49 | 1010.5 |
| 20260509153444 | 68 | 3 | 5.0 | 13.0 | 0.00 | 0.00 | 0.00 | 47 | 1010.6 |
| 20260509152942 | 68 | 133 | 3.0 | 9.0 | 0.00 | 0.00 | 0.00 | 47 | 1010.7 |
| 20260509152443 | 68 | 114 | 4.0 | 9.0 | 0.00 | 0.00 | 0.00 | 46 | 1010.8 |
| 20260509151944 | 67 | 0 | 2.0 | 5.0 | 0.00 | 0.00 | 0.00 | 48 | 1010.6 |
| 20260509151444 | 66 | 351 | 2.0 | 5.0 | 0.00 | 0.00 | 0.00 | 50 | 1010.8 |
| 20260509150944 | 65 | 0 | 2.0 | 7.0 | 0.00 | 0.00 | 0.00 | 52 | 1010.8 |
| 20260509145945 | 67 | 0 | 3.0 | 6.0 | 0.00 | 0.00 | 0.00 | 47 | 1010.9 |
| 20260509145443 | 67 | 0 | 1.0 | 5.0 | 0.00 | 0.00 | 0.00 | 50 | 1010.9 |
| 20260509144943 | 65 | 0 | 1.0 | 5.0 | 0.00 | 0.00 | 0.00 | 51 | 1010.8 |
| 20260509144443 | 65 | 302 | 2.0 | 4.0 | 0.00 | 0.00 | 0.00 | 51 | 1010.7 |
| 20260509143943 | 66 | 0 | 2.0 | 6.0 | 0.00 | 0.00 | 0.00 | 45 | 1010.8 |
| 20260509143442 | 67 | 7 | 3.0 | 6.0 | 0.00 | 0.00 | 0.00 | 48 | 1010.9 |
| 20260509142944 | 66 | 34 | 3.0 | 6.0 | 0.00 | 0.00 | 0.00 | 50 | 1011.0 |
| 20260509142441 | 65 | 47 | 3.0 | 6.0 | 0.00 | 0.00 | 0.00 | 48 | 1011.1 |
| 20260509141941 | 66 | 24 | 2.0 | 5.0 | 0.00 | 0.00 | 0.00 | 50 | 1011.2 |
| 20260509141439 | 64 | 35 | 2.0 | 4.0 | 0.00 | 0.00 | 0.00 | 48 | 1011.1 |
| 20260509140439 | 64 | 90 | 3.0 | 6.0 | 0.00 | 0.00 | 0.00 | 47 | 1011.3 |
| 20260509135437 | 62 | 83 | 1.0 | 2.0 | 0.00 | 0.00 | 0.00 | 53 | 1011.4 |
| 20260509134937 | 62 | 0 | 0.0 | 2.0 | 0.00 | 0.00 | 0.00 | 52 | 1011.3 |
| 20260509134436 | 62 | 104 | 1.0 | 2.0 | 0.00 | 0.00 | 0.00 | 53 | 1011.4 |
| 20260509133936 | 61 | 0 | 1.0 | 1.0 | 0.00 | 0.00 | 0.00 | 54 | 1011.3 |
| 20260509133437 | 61 | 252 | 0.0 | 1.0 | 0.00 | 0.00 | 0.00 | 50 | 1011.3 |
| 20260509132934 | 60 | 266 | 1.0 | 2.0 | 0.00 | 0.00 | 0.00 | 58 | 1011.3 |
| 20260509131931 | 60 | 176 | 1.0 | 2.0 | 0.00 | 0.00 | 0.00 | 61 | 1011.4 |
| 20260509131430 | 59 | 166 | 0.0 | 2.0 | 0.00 | 0.00 | 0.00 | 58 | 1011.3 |
| 20260509130930 | 59 | 87 | 1.0 | 2.0 | 0.00 | 0.00 | 0.00 | 58 | 1011.3 |
| 20260509130429 | 58 | 203 | 0.0 | 3.0 | 0.00 | 0.00 | 0.00 | 59 | 1011.4 |
| 20260509125428 | 58 | 179 | 1.0 | 4.0 | 0.00 | 0.00 | 0.00 | 61 | 1011.3 |
| 20260509124929 | 59 | 169 | 1.0 | 1.0 | 0.00 | 0.00 | 0.00 | 64 | 1011.2 |
| 20260509124430 | 59 | 164 | 0.0 | 2.0 | 0.00 | 0.00 | 0.00 | 62 | 1011.2 |
| 20260509123928 | 58 | 0 | 0.0 | 2.0 | 0.00 | 0.00 | 0.00 | 63 | 1011.2 |
| 20260509123429 | 58 | 0 | 1.0 | 1.0 | 0.00 | 0.00 | 0.00 | 61 | 1011.3 |
| 20260509122924 | 58 | 0 | 0.0 | 0.0 | 0.00 | 0.00 | 0.00 | 62 | 1011.3 |
| 20260509122425 | 58 | 264 | 0.0 | 2.0 | 0.00 | 0.00 | 0.00 | 62 | 1011.4 |
| 20260509121924 | 57 | 278 | 0.0 | 2.0 | 0.00 | 0.00 | 0.00 | 65 | 1011.4 |
| 20260509120917 | 57 | 262 | 0.0 | 0.0 | 0.00 | 0.00 | 0.00 | 65 | 1011.4 |
| 20260509120417 | 57 | 0 | 0.0 | 2.0 | 0.00 | 0.00 | 0.00 | 60 | 1011.4 |
| 20260509115918 | 57 | 281 | 0.0 | 2.0 | 0.00 | 0.00 | 0.00 | 60 | 1011.3 |
| 20260509115415 | 57 | 0 | 0.0 | 2.0 | 0.00 | 0.00 | 0.00 | 58 | 1011.3 |
| 20260509114415 | 56 | 0 | 0.0 | 1.0 | 0.00 | 0.00 | 0.00 | 63 | 1011.2 |
| 20260509113912 | 56 | 0 | 0.0 | 2.0 | 0.00 | 0.00 | 0.00 | 63 | 1011.3 |
| 20260509113414 | 57 | 0 | 0.0 | 2.0 | 0.00 | 0.00 | 0.00 | 57 | 1011.2 |
| 20260509112912 | 57 | 0 | 0.0 | 2.0 | 0.00 | 0.00 | 0.00 | 56 | 1011.2 |
| 20260509112412 | 57 | 0 | 1.0 | 2.0 | 0.00 | 0.00 | 0.00 | 55 | 1011.1 |
| 20260509111912 | 57 | 0 | 0.0 | 2.0 | 0.00 | 0.00 | 0.00 | 57 | 1011.1 |
| 20260509111408 | 57 | 0 | 1.0 | 2.0 | 0.00 | 0.00 | 0.00 | 57 | 1011.2 |
| 20260509110906 | 57 | 0 | 0.0 | 2.0 | 0.00 | 0.00 | 0.00 | 55 | 1011.0 |
| 20260509110405 | 57 | 0 | 1.0 | 2.0 | 0.00 | 0.00 | 0.00 | 53 | 1010.9 |
| 20260509105906 | 57 | 0 | 1.0 | 2.0 | 0.00 | 0.00 | 0.00 | 54 | 1010.9 |
| 20260509105402 | 56 | 196 | 0.0 | 1.0 | 0.00 | 0.00 | 0.00 | 54 | 1010.9 |
| 20260509104902 | 56 | 189 | 0.0 | 2.0 | 0.00 | 0.00 | 0.00 | 55 | 1010.9 |
| 20260509104400 | 56 | 188 | 0.0 | 2.0 | 0.00 | 0.00 | 0.00 | 55 | 1010.9 |
| 20260509103902 | 56 | 176 | 0.0 | 2.0 | 0.00 | 0.00 | 0.00 | 55 | 1011.0 |
| 20260509103402 | 56 | 182 | 0.0 | 2.0 | 0.00 | 0.00 | 0.00 | 54 | 1010.9 |
| 20260509102901 | 56 | 206 | 0.0 | 1.0 | 0.00 | 0.00 | 0.00 | 54 | 1010.9 |
| 20260509102406 | 56 | 206 | 0.0 | 3.0 | 0.00 | 0.00 | 0.00 | 54 | 1010.9 |
| 20260509101909 | 56 | 220 | 1.0 | 3.0 | 0.00 | 0.00 | 0.00 | 54 | 1010.8 |
| 20260509101404 | 56 | 179 | 1.0 | 3.0 | 0.00 | 0.00 | 0.00 | 54 | 1010.7 |
| 20260509100901 | 56 | 185 | 2.0 | 4.0 | 0.00 | 0.00 | 0.00 | 54 | 1010.8 |
| 20260509100403 | 56 | 209 | 2.0 | 4.0 | 0.00 | 0.00 | 0.00 | 55 | 1010.8 |
| 20260509095902 | 56 | 199 | 1.0 | 2.0 | 0.00 | 0.00 | 0.00 | 55 | 1010.8 |
| 20260509095402 | 56 | 179 | 1.0 | 2.0 | 0.00 | 0.00 | 0.00 | 56 | 1010.8 |
| 20260509094901 | 56 | 210 | 1.0 | 2.0 | 0.00 | 0.00 | 0.00 | 56 | 1010.7 |
| 20260509093902 | 56 | 195 | 1.0 | 2.0 | 0.00 | 0.00 | 0.00 | 54 | 1010.9 |
| 20260509093402 | 56 | 203 | 1.0 | 2.0 | 0.00 | 0.00 | 0.00 | 55 | 1010.9 |
| 20260509091359 | 57 | 210 | 0.0 | 1.0 | 0.00 | 0.00 | 0.00 | 52 | 1010.8 |
| 20260509090859 | 57 | 195 | 0.0 | 2.0 | 0.00 | 0.00 | 0.00 | 52 | 1010.7 |
| 20260509090356 | 57 | 196 | 1.0 | 2.0 | 0.00 | 0.00 | 0.00 | 52 | 1010.7 |
| 20260509085855 | 57 | 265 | 0.0 | 2.0 | 0.00 | 0.00 | 0.00 | 52 | 1010.7 |
| 20260509085354 | 57 | 271 | 0.0 | 2.0 | 0.00 | 0.00 | 0.00 | 51 | 1010.8 |
| 20260509084852 | 57 | 214 | 0.0 | 1.0 | 0.00 | 0.00 | 0.00 | 51 | 1010.8 |
| 20260509084349 | 57 | 212 | 0.0 | 2.0 | 0.00 | 0.00 | 0.00 | 52 | 1010.9 |
| 20260509083849 | 57 | 210 | 1.0 | 2.0 | 0.00 | 0.00 | 0.00 | 52 | 1010.8 |
| 20260509083347 | 57 | 212 | 0.0 | 2.0 | 0.00 | 0.00 | 0.00 | 53 | 1011.0 |
| 20260509082848 | 57 | 240 | 0.0 | 2.0 | 0.00 | 0.00 | 0.00 | 53 | 1011.1 |
| 20260509081844 | 57 | 235 | 0.0 | 2.0 | 0.00 | 0.00 | 0.00 | 53 | 1011.0 |
| 20260509081345 | 57 | 244 | 0.0 | 2.0 | 0.00 | 0.00 | 0.00 | 51 | 1011.0 |
| 20260509080344 | 57 | 244 | 0.0 | 4.0 | 0.00 | 0.00 | 0.00 | 52 | 1011.0 |
| 20260509075842 | 57 | 269 | 0.0 | 4.0 | 0.00 | 0.00 | 0.00 | 53 | 1011.0 |
| 20260509075343 | 57 | 258 | 0.0 | 4.0 | 0.00 | 0.00 | 0.00 | 53 | 1011.2 |
| 20260509074843 | 57 | 220 | 0.0 | 3.0 | 0.00 | 0.00 | 0.00 | 54 | 1011.2 |
| 20260509073344 | 57 | 245 | 0.0 | 2.0 | 0.00 | 0.00 | 0.00 | 53 | 1011.3 |
| 20260509072843 | 57 | 290 | 1.0 | 2.0 | 0.00 | 0.00 | 0.00 | 53 | 1011.2 |
| 20260509072343 | 57 | 213 | 1.0 | 4.0 | 0.00 | 0.00 | 0.00 | 53 | 1011.2 |
| 20260509071842 | 57 | 227 | 2.0 | 4.0 | 0.00 | 0.00 | 0.00 | 53 | 1011.2 |
| 20260509071343 | 57 | 214 | 0.0 | 1.0 | 0.00 | 0.00 | 0.00 | 53 | 1011.3 |
| 20260509070842 | 57 | 214 | 1.0 | 2.0 | 0.00 | 0.00 | 0.00 | 52 | 1011.3 |
| 20260509070342 | 57 | 219 | 0.0 | 3.0 | 0.00 | 0.00 | 0.00 | 53 | 1011.3 |
| 20260509065843 | 57 | 206 | 1.0 | 5.0 | 0.00 | 0.00 | 0.00 | 52 | 1011.4 |
| 20260509065341 | 57 | 235 | 0.0 | 5.0 | 0.00 | 0.00 | 0.00 | 52 | 1011.4 |
| 20260509064333 | 57 | 226 | 1.0 | 2.0 | 0.00 | 0.00 | 0.00 | 53 | 1011.4 |
| 20260509063833 | 57 | 243 | 1.0 | 2.0 | 0.00 | 0.00 | 0.00 | 53 | 1011.6 |
| 20260509063332 | 57 | 212 | 1.0 | 2.0 | 0.00 | 0.00 | 0.00 | 54 | 1011.6 |
| 20260509062832 | 57 | 234 | 1.0 | 2.0 | 0.00 | 0.00 | 0.00 | 54 | 1011.7 |
| 20260509062333 | 57 | 257 | 0.0 | 2.0 | 0.00 | 0.00 | 0.00 | 53 | 1011.7 |
| 20260509061831 | 58 | 269 | 1.0 | 3.0 | 0.00 | 0.00 | 0.00 | 52 | 1011.6 |
| 20260509061330 | 58 | 0 | 1.0 | 4.0 | 0.00 | 0.00 | 0.00 | 53 | 1011.7 |
| 20260509060829 | 58 | 0 | 1.0 | 4.0 | 0.00 | 0.00 | 0.00 | 53 | 1011.8 |
| 20260509060327 | 57 | 279 | 0.0 | 6.0 | 0.00 | 0.00 | 0.00 | 57 | 1011.8 |
| 20260509055827 | 57 | 0 | 2.0 | 6.0 | 0.00 | 0.00 | 0.00 | 57 | 1011.8 |
| 20260509055328 | 56 | 0 | 1.0 | 2.0 | 0.00 | 0.00 | 0.00 | 57 | 1011.9 |
| 20260509054828 | 56 | 0 | 1.0 | 2.0 | 0.00 | 0.00 | 0.00 | 57 | 1011.7 |
| 20260509054327 | 56 | 0 | 0.0 | 2.0 | 0.00 | 0.00 | 0.00 | 58 | 1011.8 |
| 20260509053826 | 56 | 0 | 0.0 | 2.0 | 0.00 | 0.00 | 0.00 | 58 | 1011.8 |
| 20260509053317 | 56 | 251 | 0.0 | 1.0 | 0.00 | 0.00 | 0.00 | 58 | 1011.8 |
| 20260509052818 | 55 | 247 | 0.0 | 2.0 | 0.00 | 0.00 | 0.00 | 59 | 1011.7 |
| 20260509052315 | 54 | 0 | 0.0 | 2.0 | 0.00 | 0.00 | 0.00 | 63 | 1011.9 |
| 20260509051813 | 54 | 0 | 0.0 | 2.0 | 0.00 | 0.00 | 0.00 | 62 | 1011.8 |
| 20260509051312 | 54 | 68 | 0.0 | 2.0 | 0.00 | 0.00 | 0.00 | 64 | 1011.8 |
| 20260509050811 | 53 | 68 | 0.0 | 2.0 | 0.00 | 0.00 | 0.00 | 66 | 1011.9 |
| 20260509050311 | 51 | 128 | 0.0 | 0.0 | 0.00 | 0.00 | 0.00 | 70 | 1011.9 |
| 20260509045811 | 51 | 124 | 0.0 | 0.0 | 0.00 | 0.00 | 0.00 | 69 | 1011.8 |
| 20260509045311 | 52 | 73 | 0.0 | 2.0 | 0.00 | 0.00 | 0.00 | 68 | 1011.8 |
| 20260509044810 | 51 | 73 | 0.0 | 2.0 | 0.00 | 0.00 | 0.00 | 70 | 1011.8 |
| 20260509044308 | 52 | 135 | 0.0 | 1.0 | 0.00 | 0.00 | 0.00 | 70 | 1011.7 |
| 20260509043802 | 51 | 85 | 0.0 | 2.0 | 0.00 | 0.00 | 0.00 | 70 | 1011.7 |
| 20260509042801 | 51 | 0 | 0.0 | 2.0 | 0.00 | 0.00 | 0.00 | 69 | 1011.8 |
| 20260509042307 | 50 | 135 | 0.0 | 2.0 | 0.00 | 0.00 | 0.00 | 71 | 1011.8 |
| 20260509041803 | 51 | 133 | 0.0 | 2.0 | 0.00 | 0.00 | 0.00 | 68 | 1011.8 |
| 20260509040801 | 51 | 127 | 0.0 | 2.0 | 0.00 | 0.00 | 0.00 | 70 | 1011.8 |
| 20260509040301 | 52 | 73 | 0.0 | 2.0 | 0.00 | 0.00 | 0.00 | 67 | 1011.8 |
| 20260509035801 | 50 | 131 | 0.0 | 2.0 | 0.00 | 0.00 | 0.00 | 72 | 1011.8 |
| 20260509035301 | 49 | 128 | 0.0 | 2.0 | 0.00 | 0.00 | 0.00 | 73 | 1011.8 |
| 20260509034301 | 48 | 0 | 0.0 | 2.0 | 0.00 | 0.00 | 0.00 | 73 | 1011.9 |
| 20260509033759 | 49 | 0 | 0.0 | 2.0 | 0.00 | 0.00 | 0.00 | 73 | 1011.9 |
| 20260509032759 | 48 | 0 | 1.0 | 2.0 | 0.00 | 0.00 | 0.00 | 73 | 1011.9 |
| 20260509032300 | 49 | 0 | 0.0 | 2.0 | 0.00 | 0.00 | 0.00 | 72 | 1011.9 |
| 20260509031255 | 49 | 137 | 0.0 | 2.0 | 0.00 | 0.00 | 0.00 | 71 | 1011.9 |
| 20260509030756 | 50 | 55 | 0.0 | 2.0 | 0.00 | 0.00 | 0.00 | 71 | 1011.8 |
| 20260509030256 | 49 | 55 | 0.0 | 2.0 | 0.00 | 0.00 | 0.00 | 71 | 1012.0 |
| 20260509025756 | 50 | 55 | 0.0 | 2.0 | 0.00 | 0.00 | 0.00 | 69 | 1011.9 |
| 20260509025255 | 50 | 56 | 0.0 | 2.0 | 0.00 | 0.00 | 0.00 | 69 | 1012.1 |
| 20260509024754 | 50 | 55 | 0.0 | 1.0 | 0.00 | 0.00 | 0.00 | 69 | 1012.1 |
| 20260509024252 | 51 | 55 | 0.0 | 1.0 | 0.00 | 0.00 | 0.00 | 68 | 1012.3 |
| 20260509023251 | 52 | 0 | 0.0 | 2.0 | 0.00 | 0.00 | 0.00 | 66 | 1012.3 |
| 20260509022753 | 52 | 54 | 0.0 | 2.0 | 0.00 | 0.00 | 0.00 | 67 | 1012.3 |
| 20260509022249 | 52 | 62 | 0.0 | 2.0 | 0.00 | 0.00 | 0.00 | 65 | 1012.1 |
| 20260509021751 | 52 | 0 | 1.0 | 2.0 | 0.00 | 0.00 | 0.00 | 63 | 1012.1 |
| 20260509021243 | 53 | 127 | 0.0 | 2.0 | 0.00 | 0.00 | 0.00 | 63 | 1012.0 |
| 20260509020743 | 53 | 130 | 0.0 | 2.0 | 0.00 | 0.00 | 0.00 | 61 | 1012.0 |
| 20260509020243 | 54 | 0 | 0.0 | 1.0 | 0.00 | 0.00 | 0.00 | 60 | 1012.1 |
| 20260509015741 | 54 | 0 | 0.0 | 0.0 | 0.00 | 0.00 | 0.00 | 60 | 1012.0 |
| 20260509014243 | 55 | 0 | 0.0 | 2.0 | 0.00 | 0.00 | 0.00 | 56 | 1012.0 |
| 20260509013241 | 57 | 56 | 0.0 | 0.0 | 0.00 | 0.00 | 0.00 | 57 | 1012.1 |
| 20260509012740 | 58 | 54 | 0.0 | 2.0 | 0.00 | 0.00 | 0.00 | 54 | 1011.9 |
| 20260509011741 | 59 | 54 | 0.0 | 1.0 | 0.00 | 0.00 | 0.00 | 50 | 1011.8 |
| 20260509011235 | 60 | 55 | 0.0 | 2.0 | 0.00 | 0.00 | 0.00 | 50 | 1011.8 |
| 20260509010735 | 59 | 54 | 1.0 | 2.0 | 0.00 | 0.00 | 0.00 | 52 | 1011.8 |
| 20260509010233 | 60 | 54 | 1.0 | 2.0 | 0.00 | 0.00 | 0.00 | 52 | 1011.8 |
| 20260509005733 | 62 | 110 | 0.0 | 2.0 | 0.00 | 0.00 | 0.00 | 46 | 1011.8 |
| 20260509005232 | 62 | 0 | 0.0 | 1.0 | 0.00 | 0.00 | 0.00 | 46 | 1011.7 |
| 20260509004733 | 62 | 55 | 0.0 | 3.0 | 0.00 | 0.00 | 0.00 | 45 | 1011.7 |
| 20260509003731 | 64 | 42 | 2.0 | 2.0 | 0.00 | 0.00 | 0.00 | 42 | 1011.6 |
| 20260509003228 | 65 | 49 | 2.0 | 2.0 | 0.00 | 0.00 | 0.00 | 40 | 1011.6 |
| 20260509002729 | 65 | 237 | 0.0 | 1.0 | 0.00 | 0.00 | 0.00 | 39 | 1011.6 |
| 20260509002230 | 66 | 176 | 0.0 | 3.0 | 0.00 | 0.00 | 0.00 | 37 | 1011.5 |
| 20260509001723 | 67 | 182 | 1.0 | 4.0 | 0.00 | 0.00 | 0.00 | 35 | 1011.5 |
| 20260509001222 | 67 | 137 | 2.0 | 4.0 | 0.00 | 0.00 | 0.00 | 35 | 1011.5 |
| 20260509000722 | 67 | 175 | 2.0 | 3.0 | 0.00 | 0.00 | 0.00 | 35 | 1011.4 |
| 20260509000222 | 67 | 179 | 1.0 | 3.0 | 0.00 | 0.00 | 0.00 | 35 | 1011.4 |
| 20260508235216 | 68 | 155 | 2.0 | 4.0 | 0.00 | 0.00 | 0.00 | 33 | 1011.3 |
| 20260508234718 | 68 | 164 | 2.0 | 4.0 | 0.00 | 0.00 | 0.00 | 34 | 1011.2 |
| 20260508233712 | 69 | 180 | 2.0 | 5.0 | 0.00 | 0.00 | 0.00 | 33 | 1011.2 |
| 20260508233212 | 69 | 0 | 3.0 | 9.0 | 0.00 | 0.00 | 0.00 | 36 | 1011.2 |
| 20260508232704 | 69 | 149 | 2.0 | 9.0 | 0.00 | 0.00 | 0.00 | 36 | 1011.1 |
| 20260508232203 | 70 | 172 | 2.0 | 5.0 | 0.00 | 0.00 | 0.00 | 36 | 1011.0 |
| 20260508231704 | 70 | 0 | 1.0 | 3.0 | 0.00 | 0.00 | 0.00 | 36 | 1011.1 |
| 20260508231202 | 70 | 269 | 0.0 | 3.0 | 0.00 | 0.00 | 0.00 | 36 | 1010.9 |
| 20260508230704 | 71 | 264 | 2.0 | 4.0 | 0.00 | 0.00 | 0.00 | 33 | 1011.0 |
| 20260508230204 | 71 | 279 | 2.0 | 5.0 | 0.00 | 0.00 | 0.00 | 31 | 1010.9 |
| 20260508225653 | 71 | 293 | 3.0 | 5.0 | 0.00 | 0.00 | 0.00 | 31 | 1010.9 |
| 20260508225151 | 71 | 268 | 3.0 | 5.0 | 0.00 | 0.00 | 0.00 | 32 | 1011.0 |
| 20260508224651 | 71 | 0 | 2.0 | 7.0 | 0.00 | 0.00 | 0.00 | 31 | 1010.9 |
| 20260508224152 | 71 | 310 | 2.0 | 7.0 | 0.00 | 0.00 | 0.00 | 33 | 1010.9 |
| 20260508223152 | 71 | 278 | 2.0 | 5.0 | 0.00 | 0.00 | 0.00 | 32 | 1010.9 |
| 20260508222652 | 71 | 281 | 3.0 | 5.0 | 0.00 | 0.00 | 0.00 | 30 | 1011.0 |
| 20260508222152 | 70 | 276 | 2.0 | 7.0 | 0.00 | 0.00 | 0.00 | 31 | 1011.0 |
| 20260508221650 | 69 | 0 | 4.0 | 7.0 | 0.00 | 0.00 | 0.00 | 33 | 1010.9 |
| 20260508221147 | 70 | 314 | 2.0 | 5.0 | 0.00 | 0.00 | 0.00 | 30 | 1010.9 |
| 20260508220645 | 71 | 0 | 2.0 | 7.0 | 0.00 | 0.00 | 0.00 | 30 | 1010.8 |
| 20260508215641 | 71 | 0 | 2.0 | 9.0 | 0.00 | 0.00 | 0.00 | 31 | 1010.9 |
| 20260508215142 | 71 | 0 | 5.0 | 9.0 | 0.00 | 0.00 | 0.00 | 30 | 1010.9 |
| 20260508214644 | 71 | 0 | 5.0 | 10.0 | 0.00 | 0.00 | 0.00 | 30 | 1010.9 |
| 20260508214141 | 72 | 278 | 5.0 | 10.0 | 0.00 | 0.00 | 0.00 | 31 | 1011.0 |
| 20260508213641 | 71 | 0 | 3.0 | 9.0 | 0.00 | 0.00 | 0.00 | 30 | 1010.9 |
| 20260508213142 | 72 | 0 | 5.0 | 9.0 | 0.00 | 0.00 | 0.00 | 30 | 1011.0 |
| 20260508212642 | 72 | 0 | 3.0 | 9.0 | 0.00 | 0.00 | 0.00 | 31 | 1011.0 |
| 20260508212148 | 70 | 0 | 5.0 | 11.0 | 0.00 | 0.00 | 0.00 | 32 | 1011.1 |
| 20260508211644 | 71 | 353 | 6.0 | 11.0 | 0.00 | 0.00 | 0.00 | 31 | 1011.2 |
| 20260508211145 | 72 | 0 | 2.0 | 10.0 | 0.00 | 0.00 | 0.00 | 31 | 1011.3 |
| 20260508210655 | 72 | 0 | 4.0 | 12.0 | 0.00 | 0.00 | 0.00 | 29 | 1011.3 |
| 20260508210142 | 72 | 0 | 5.0 | 12.0 | 0.00 | 0.00 | 0.00 | 30 | 1011.3 |
| 20260508205141 | 71 | 0 | 3.0 | 7.0 | 0.00 | 0.00 | 0.00 | 33 | 1011.4 |
| 20260508204641 | 69 | 290 | 4.0 | 9.0 | 0.00 | 0.00 | 0.00 | 32 | 1011.5 |
| 20260508204141 | 70 | 0 | 4.0 | 9.0 | 0.00 | 0.00 | 0.00 | 29 | 1011.5 |
| 20260508203642 | 71 | 0 | 4.0 | 11.0 | 0.00 | 0.00 | 0.00 | 30 | 1011.6 |
| 20260508202641 | 73 | 0 | 6.0 | 13.0 | 0.00 | 0.00 | 0.00 | 28 | 1011.7 |
| 20260508202140 | 73 | 0 | 7.0 | 16.0 | 0.00 | 0.00 | 0.00 | 31 | 1011.5 |
| 20260508201641 | 73 | 272 | 6.0 | 16.0 | 0.00 | 0.00 | 0.00 | 29 | 1011.5 |
| 20260508201143 | 72 | 306 | 4.0 | 10.0 | 0.00 | 0.00 | 0.00 | 32 | 1011.6 |
| 20260508200642 | 70 | 266 | 4.0 | 12.0 | 0.00 | 0.00 | 0.00 | 33 | 1011.8 |